This demonstration page uses our WeatherBlox Daily Observations layout. Learn more.

38.89511, -77.03637

Hourly Observations for October 27, 2015

Temp ( °F °C ) Dew Point ( °F °C ) Humidity (%) Winds ( mph kmh ) Pressure ( in mb ) Visibility ( mi km ) Precip ( " mm )
12:52 am 00:52 Mostly Cloudy 47 8.3 40 4.4 77 77 Calm 30.5 1033 10 16.0934 0 0
1:52 am 01:52 Mostly Cloudy 46 7.8 41 5 83 83 NE 7 11 30.49 1032 10 16.0934 0 0
2:52 am 02:52 Cloudy 46 7.8 41 5 83 83 NE 3 6 30.48 1032 10 16.0934 0 0
3:52 am 03:52 Cloudy 45 7.2 40 4.4 83 83 N 3 6 30.47 1032 10 16.0934 0 0
4:52 am 04:52 Cloudy 44 6.7 40 4.4 85 85 Calm 30.48 1032 10 16.0934 0 0
5:52 am 05:52 Cloudy 46 7.8 39 3.9 77 77 NE 5 7 30.48 1032 10 16.0934 0 0
6:52 am 06:52 Cloudy 46 7.8 41 5 83 83 ENE 5 7 30.48 1032 10 16.0934 0 0
7:52 am 07:52 Cloudy 47 8.3 41 5 80 80 NE 8 13 30.48 1032 10 16.0934 0 0
8:52 am 08:52 Cloudy 49 9.4 43 6.1 80 80 NE 6 9 30.52 1033 10 16.0934 0 0
9:25 am 09:25 Cloudy 50 10 43 6 76 76 N 5 7 30.53 1034 10 16.0934 0 0
9:52 am 09:52 Cloudy 51 10.6 43 6.1 74 74 NNE 6 9 30.53 1034 10 16.0934 0 0
10:52 am 10:52 Cloudy 52 11.1 44 6.7 75 75 NE 8 13 30.52 1034 10 16.0934 0 0
11:52 am 11:52 Cloudy 53 11.7 44 6.7 72 72 NNE 9 15 30.5 1033 10 16.0934 0 0
12:52 pm 12:52 Cloudy 54 12.2 45 7.2 72 72 ENE 10 17 30.46 1032 10 16.0934 0 0
1:52 pm 13:52 Cloudy 56 13.3 47 8.3 72 72 NE 8 13 30.43 1031 10 16.0934 0 0
2:52 pm 14:52 Cloudy 57 13.9 48 8.9 72 72 NE 9 15 30.41 1030 10 16.0934 0 0
3:32 pm 15:32 Cloudy 57 14 48 9 72 72 NE 7 11 30.42 1030 10 16.0934 0 0
3:52 pm 15:52 Cloudy 58 14.4 49 9.4 72 72 NE 7 11 30.41 1030 10 16.0934 0 0
4:52 pm 16:52 Cloudy with Light Rain 58 14.4 50 10 75 75 NE 7 11 30.39 1029 10 16.0934 0 0.0254
5:07 pm 17:07 Cloudy 59 15 50 10 72 72 ENE 6 9 30.39 1029 10 16.0934 0 0.0254
5:52 pm 17:52 Cloudy 59 15 51 10.6 75 75 ENE 7 11 30.38 1029 10 16.0934 0 0.0254
6:52 pm 18:52 Cloudy 59 15 50 10 72 72 E 10 17 30.38 1029 10 16.0934 0 0
7:52 pm 19:52 Cloudy 59 15 50 10 72 72 ENE 12 19 30.38 1029 10 16.0934 0 0
8:52 pm 20:52 Cloudy 58 14.4 50 10 75 75 ENE 13 20 30.37 1029 10 16.0934 0 0
9:52 pm 21:52 Cloudy 57 13.9 50 10 78 78 ENE 14 22 30.36 1028 10 16.0934 0 0
10:52 pm 22:52 Cloudy with Light Rain 56 13.3 50 10 81 81 ENE 10 17 30.35 1028 10 16.0934 0 0.0254
11:52 pm 23:52 Cloudy with Light Drizzle 56 13.3 51 10.6 84 84 ENE 9 15 30.34 1027 10 16.0934 0 0.0254
11:56 pm 23:56 Cloudy 55 13 52 11 88 88 NE 9 15 30.33 1027 10 16.0934 0 0

Powered by AerisWeather